TimeCDT,TemperatureF,Dew PointF,Humidity,Sea Level PressureIn,VisibilityMPH,Wind Direction,Wind SpeedMPH,Gust SpeedMPH,PrecipitationIn,Events,Conditions,WindDirDegrees,DateUTC
12:15 AM,33.1,27.7,81,30.05,10.0,NNE,3.5,-,N/A,,Clear,20,2012-10-31 05:15:00
12:35 AM,33.3,27.7,80,30.05,10.0,Calm,Calm,-,N/A,,Clear,0,2012-10-31 05:35:00
12:55 AM,34.5,27.5,76,30.05,10.0,Calm,Calm,-,N/A,,Clear,0,2012-10-31 05:55:00
1:15 AM,35.4,27.3,72,30.06,10.0,Calm,Calm,-,N/A,,Clear,0,2012-10-31 06:15:00
1:35 AM,35.2,28.0,75,30.06,10.0,Calm,Calm,-,N/A,,Clear,0,2012-10-31 06:35:00
1:55 AM,33.1,27.1,79,30.06,10.0,Calm,Calm,-,N/A,,Scattered Clouds,0,2012-10-31 06:55:00
2:15 AM,32.7,27.3,81,30.06,10.0,NW,3.5,-,N/A,,Scattered Clouds,310,2012-10-31 07:15:00
2:35 AM,33.6,28.9,83,30.06,10.0,WSW,3.5,-,N/A,,Clear,250,2012-10-31 07:35:00
2:55 AM,32.7,29.8,89,30.05,10.0,West,3.5,-,N/A,,Clear,260,2012-10-31 07:55:00
3:15 AM,32.0,28.6,87,30.06,10.0,Calm,Calm,-,N/A,,Clear,0,2012-10-31 08:15:00
3:35 AM,30.2,26.2,85,30.06,10.0,North,3.5,-,N/A,,Clear,10,2012-10-31 08:35:00
3:55 AM,29.8,26.1,86,30.06,10.0,North,4.6,-,N/A,,Clear,10,2012-10-31 08:55:00
4:35 AM,30.2,26.6,86,30.06,10.0,NW,4.6,-,N/A,,Scattered Clouds,320,2012-10-31 09:35:00
4:55 AM,30.2,26.2,85,30.06,10.0,Calm,Calm,-,N/A,,Mostly Cloudy,0,2012-10-31 09:55:00
5:15 AM,30.6,26.6,85,30.06,10.0,North,4.6,-,N/A,,Overcast,350,2012-10-31 10:15:00
5:35 AM,30.2,26.6,86,30.06,10.0,NNW,3.5,-,N/A,,Overcast,330,2012-10-31 10:35:00
5:55 AM,30.2,26.4,86,30.05,10.0,Calm,Calm,-,N/A,,Scattered Clouds,0,2012-10-31 10:55:00
6:15 AM,30.6,27.0,86,30.05,10.0,Calm,Calm,-,N/A,,Clear,0,2012-10-31 11:15:00
6:35 AM,30.9,26.6,84,30.05,10.0,Calm,Calm,-,N/A,,Clear,0,2012-10-31 11:35:00
6:55 AM,31.8,26.2,80,30.04,10.0,Calm,Calm,-,N/A,,Clear,0,2012-10-31 11:55:00
7:15 AM,30.0,26.1,85,30.05,10.0,Calm,Calm,-,N/A,,Clear,0,2012-10-31 12:15:00
7:35 AM,29.8,26.1,86,30.05,10.0,Calm,Calm,-,N/A,,Clear,0,2012-10-31 12:35:00
7:55 AM,29.5,25.7,86,30.05,10.0,Calm,Calm,-,N/A,,Clear,0,2012-10-31 12:55:00
8:15 AM,28.4,25.3,88,30.07,10.0,Calm,Calm,-,N/A,,Clear,0,2012-10-31 13:15:00
8:35 AM,29.7,26.4,88,30.07,10.0,Calm,Calm,-,N/A,,Clear,0,2012-10-31 13:35:00
8:55 AM,32.9,29.1,86,30.07,10.0,Calm,Calm,-,N/A,,Clear,0,2012-10-31 13:55:00
9:15 AM,36.0,28.0,73,30.07,10.0,Calm,Calm,-,N/A,,Clear,0,2012-10-31 14:15:00
9:35 AM,37.9,30.0,73,30.07,7.0,Calm,Calm,-,N/A,,Clear,0,2012-10-31 14:35:00
9:55 AM,40.1,30.6,69,30.07,7.0,Calm,Calm,-,N/A,,Clear,0,2012-10-31 14:55:00
10:15 AM,41.7,30.0,63,30.07,10.0,South,3.5,-,N/A,,Clear,170,2012-10-31 15:15:00
10:35 AM,43.9,30.2,59,30.07,10.0,SSE,4.6,-,N/A,,Clear,160,2012-10-31 15:35:00
10:55 AM,45.3,30.4,56,30.07,10.0,SSE,6.9,-,N/A,,Clear,160,2012-10-31 15:55:00
11:15 AM,47.1,31.6,55,30.07,10.0,South,5.8,-,N/A,,Clear,170,2012-10-31 16:15:00
11:35 AM,49.5,29.7,47,30.06,10.0,South,6.9,-,N/A,,Clear,190,2012-10-31 16:35:00
11:55 AM,50.5,28.6,43,30.06,10.0,South,6.9,-,N/A,,Clear,190,2012-10-31 16:55:00
12:15 PM,51.1,29.8,44,30.06,10.0,South,5.8,-,N/A,,Clear,190,2012-10-31 17:15:00
12:35 PM,52.9,28.6,39,30.05,10.0,SSW,4.6,-,N/A,,Clear,200,2012-10-31 17:35:00
12:55 PM,54.5,28.2,36,30.04,10.0,SSW,6.9,-,N/A,,Clear,200,2012-10-31 17:55:00
1:15 PM,55.6,28.4,35,30.04,10.0,SSW,4.6,-,N/A,,Clear,210,2012-10-31 18:15:00
1:55 PM,57.0,29.1,35,30.01,10.0,SSW,6.9,-,N/A,,Clear,210,2012-10-31 18:55:00
2:15 PM,57.7,29.1,34,30.00,10.0,SSW,4.6,-,N/A,,Clear,210,2012-10-31 19:15:00
2:35 PM,58.8,29.8,33,30.00,10.0,SSW,3.5,-,N/A,,Clear,210,2012-10-31 19:35:00
2:55 PM,60.1,31.1,33,29.99,10.0,Calm,Calm,-,N/A,,Clear,0,2012-10-31 19:55:00
3:15 PM,60.8,31.5,33,29.98,10.0,SSW,5.8,-,N/A,,Clear,210,2012-10-31 20:15:00
3:35 PM,61.2,32.0,33,29.97,10.0,SSW,5.8,-,N/A,,Clear,200,2012-10-31 20:35:00
3:55 PM,61.5,32.0,33,29.97,10.0,SE,3.5,-,N/A,,Clear,130,2012-10-31 20:55:00
4:15 PM,61.7,32.2,33,29.97,10.0,SSW,3.5,-,N/A,,Clear,200,2012-10-31 21:15:00
4:35 PM,61.5,32.7,34,29.97,10.0,Calm,Calm,-,N/A,,Clear,0,2012-10-31 21:35:00
4:55 PM,61.3,33.8,36,29.97,10.0,Calm,Calm,-,N/A,,Clear,0,2012-10-31 21:55:00
5:15 PM,60.8,33.8,36,29.97,10.0,SE,3.5,-,N/A,,Clear,130,2012-10-31 22:15:00
5:35 PM,59.0,35.6,42,29.98,10.0,ESE,4.6,-,N/A,,Clear,110,2012-10-31 22:35:00
5:55 PM,57.7,35.4,43,29.98,10.0,ESE,4.6,-,N/A,,Clear,120,2012-10-31 22:55:00
6:15 PM,54.7,35.8,49,29.98,10.0,East,5.8,-,N/A,,Clear,100,2012-10-31 23:15:00
6:55 PM,49.6,34.7,56,29.99,10.0,East,4.6,-,N/A,,Clear,90,2012-10-31 23:55:00
7:15 PM,48.2,33.8,58,29.99,10.0,East,4.6,-,N/A,,Clear,100,2012-11-01 00:15:00
7:35 PM,47.8,33.6,58,29.99,4.0,ESE,3.5,-,N/A,,Haze,120,2012-11-01 00:35:00
7:55 PM,47.1,33.4,59,29.99,10.0,Calm,Calm,-,N/A,,Clear,0,2012-11-01 00:55:00
8:15 PM,48.0,33.8,58,29.99,10.0,SSE,3.5,-,N/A,,Clear,150,2012-11-01 01:15:00
8:35 PM,46.6,33.8,61,29.99,10.0,South,3.5,-,N/A,,Clear,170,2012-11-01 01:35:00
8:55 PM,47.3,33.8,59,29.99,10.0,Calm,Calm,-,N/A,,Clear,0,2012-11-01 01:55:00
9:15 PM,46.6,33.8,61,29.99,10.0,SSW,3.5,-,N/A,,Clear,210,2012-11-01 02:15:00
9:35 PM,47.3,33.8,59,29.98,10.0,SSW,3.5,-,N/A,,Clear,200,2012-11-01 02:35:00
10:15 PM,45.7,33.8,63,29.98,10.0,Calm,Calm,-,N/A,,Scattered Clouds,0,2012-11-01 03:15:00
10:35 PM,45.1,33.8,65,29.99,10.0,Calm,Calm,-,N/A,,Mostly Cloudy,0,2012-11-01 03:35:00
11:15 PM,43.9,34.0,68,29.98,10.0,Calm,Calm,-,N/A,,Overcast,0,2012-11-01 04:15:00
11:35 PM,44.2,36.5,74,29.98,10.0,Calm,Calm,-,N/A,,Overcast,0,2012-11-01 04:35:00
11:55 PM,43.7,37.4,78,29.98,10.0,Calm,Calm,-,N/A,,Overcast,0,2012-11-01 04:55:00